Home   Weather   Rosenheim   Past weeks

Flag for Germany Past Weather in Rosenheim, Bavaria, Germany — Yesterday and Last 2 Weeks

Now
65 °F

Mild.


Feels Like: 65 °F
Forecast: 58 / 81 °F
Wind: No wind

Location: Kufstein

Current Time: Jun 25, 2017 at 5:45:34 am

Latest Report: Jun 25, 2017 at 5:00 am


Visibility: N/A

Pressure: 29.95 "Hg

Humidity: 90%

Dew Point: 62 °F

Location of RosenheimLocation

Past Weather in Rosenheim — Graph

°F

Rosenheim Temperature Yesterday

Maximum temperature yesterday: 81 °F (at 5:00 pm)
Minimum temperature yesterday: 65 °F (at 6:00 am)
Average temperature yesterday: 75 °F

High & Low Weather Summary for the Past Weeks

 TemperatureHumidityPressure
High90 °F (Jun 23, 3:00 pm)95% (Jun 21, 4:00 am)30.29 "Hg (Jun 21, 4:00 am)
Low52 °F (Jun 11, 6:00 am)29% (Jun 23, 4:00 pm)29.83 "Hg (Jun 22, 7:00 pm)
Average71 °F61%30.04 "Hg
* Reported Jun 10 4:00 am — Jun 25 4:00 am, Rosenheim. Weather by CustomWeather, © 2017

Note: Actual official high and low records may vary slightly from our data, if they occured in-between our weather recording intervals... More about our weather records

Advertising

Rosenheim Weather History for the Previous 24 Hours

Scroll right to see more
 ConditionsComfort  
Time TempWeatherWind HumidityBarometerVisibility
4:00 am
Sun, Jun 25
66 °FMild.No wind88%29.96 "HgN/A
3:00 am67 °FMild.No wind86%29.96 "HgN/A
2:00 am69 °FMild.1 mph80%29.96 "HgN/A
1:00 am71 °FMild.1 mph76%29.96 "HgN/A
12:00 am72 °FMild.1 mph73%29.98 "HgN/A
11:00 pm
Sat, Jun 24
74 °FMild.1 mph69%29.96 "HgN/A
10:00 pm76 °FMild.No wind63%29.94 "HgN/A
9:00 pm78 °FWarm.1 mph58%29.93 "HgN/A
8:00 pm79 °FWarm.3 mph55%29.90 "HgN/A
7:00 pm79 °FWarm.3 mph55%29.91 "HgN/A
6:00 pm81 °FWarm.5 mph52%29.89 "HgN/A
5:00 pm81 °FWarm.5 mph53%29.90 "HgN/A
4:00 pm81 °FWarm.6 mph53%29.91 "HgN/A
3:00 pm80 °FWarm.5 mph54%29.93 "HgN/A
2:00 pm78 °FWarm.5 mph55%29.94 "HgN/A
1:00 pm79 °FWarm.5 mph52%29.95 "HgN/A
12:00 pm77 °FWarm.3 mph53%29.97 "HgN/A
11:00 am75 °FMild.3 mph53%29.99 "HgN/A
10:00 am74 °FMild.3 mph55%30.02 "HgN/A
9:00 am72 °FMild.3 mph61%30.03 "HgN/A
8:00 am69 °FMild.1 mph71%30.04 "HgN/A
7:00 am66 °FMild.1 mph74%30.05 "HgN/A
6:00 am65 °FMild.No wind77%30.05 "HgN/A
5:00 am67 °FMild.1 mph71%30.04 "HgN/A
Weather by CustomWeather, © 2017

See weather overviewHow to use our weather pages